Location: Be Tobo
(6.6442°N, 10.6239°W)
Time: 00:49:50
(UTC+00:00)

IRS-1C Rocket - Pass Details

Date: 18 September 2020
Orbit: 801 x 805 km, 99.0° (Epoch: 21 October)

Event Time Altitude Azimuth Distance (km) Brightness Sun altitude
Rises 19:15:41 0° 168° (SSE) 3,307 7.1 -9.6°
Reaches altitude 10° 19:18:01 10° 168° (SSE) 2,375 6.4 -10.2°
Maximum altitude 19:23:16 88° 256° (WSW) 805 4.1 -11.5°
Drops below altitude 10° 19:28:31 10° 347° (NNW) 2,368 6.7 -12.8°
Sets 19:30:50 0° 347° (NNW) 3,297 7.5 -13.3°
